GW0353 Weather Reports


time (UTC)temp
C
wind
direction
speed
KPH
gust
KPH
rain 1hr
cm
rain 24hr
cm
rain mn
cm
humidity
%
barometer
mb
20260903012058 17 231 4.8 11.3 0.00 0.00 0.00 32 1021.3
20260903011606 18 167 3.2 11.3 0.00 0.00 0.00 32 1021.4
20260903011101 18 153 1.6 12.9 0.00 0.00 0.00 32 1021.4
20260903010558 18 161 3.2 12.9 0.00 0.00 0.00 30 1021.5
20260903005558 18 157 4.8 16.1 0.00 0.00 0.00 31 1021.5
20260903005058 18 138 3.2 24.1 0.00 0.00 0.00 30 1021.4
20260903004604 18 188 3.2 24.1 0.00 0.00 0.00 30 1021.3
20260903004057 18 243 6.4 17.7 0.00 0.00 0.00 30 1021.3
20260903003557 18 172 8.0 17.7 0.00 0.00 0.00 30 1021.4
20260903003109 19 163 6.4 17.7 0.00 0.00 0.00 29 1021.5
20260903002558 19 234 6.4 17.7 0.00 0.00 0.00 29 1021.3
20260903002058 19 153 4.8 19.3 0.00 0.00 0.00 30 1021.4
20260903001625 19 160 4.8 19.3 0.00 0.00 0.00 29 1021.4
20260903001057 19 127 6.4 14.5 0.00 0.00 0.00 27 1021.4
20260903000557 19 175 6.4 17.7 0.00 0.00 0.00 30 1021.4
20260903000103 19 221 9.7 17.7 0.00 0.00 0.00 28 1021.6
20260902235557 20 156 1.6 25.7 0.00 0.00 0.00 29 1021.4
20260902235058 20 174 4.8 25.7 0.00 0.00 0.00 27 1021.4
20260902234627 20 0 8.0 29.0 0.00 0.00 0.00 26 1021.5
20260902234100 20 175 9.7 29.0 0.00 0.00 0.00 28 1021.4
20260902233557 20 172 4.8 25.7 0.00 0.00 0.00 28 1021.5
20260902233105 19 200 6.4 25.7 0.00 0.00 0.00 28 1021.3
20260902232601 19 163 12.9 20.9 0.00 0.00 0.00 27 1021.3
20260902232057 19 197 11.3 17.7 0.00 0.00 0.00 27 1021.4
20260902231614 19 266 4.8 22.5 0.00 0.00 0.00 27 1021.3
20260902231057 19 179 6.4 22.5 0.00 0.00 0.00 27 1021.5
20260902230600 20 163 8.0 22.5 0.00 0.00 0.00 28 1021.5
20260902230115 19 94 9.7 29.0 0.00 0.00 0.00 28 1021.3
20260902225557 19 289 12.9 29.0 0.00 0.00 0.00 28 1021.4
20260902225058 20 184 8.0 20.9 0.00 0.00 0.00 28 1021.4
20260902224605 20 251 8.0 27.4 0.00 0.00 0.00 28 1021.4
20260902224057 19 193 9.7 29.0 0.00 0.00 0.00 28 1021.7
20260902223554 19 150 14.5 29.0 0.00 0.00 0.00 27 1021.5
20260902223104 20 330 6.4 20.9 0.00 0.00 0.00 27 1021.7
20260902222558 20 160 4.8 20.9 0.00 0.00 0.00 28 1021.6
20260902222101 20 162 8.0 19.3 0.00 0.00 0.00 29 1021.6
20260902221607 19 153 6.4 22.5 0.00 0.00 0.00 29 1021.6
20260902221057 19 150 9.7 27.4 0.00 0.00 0.00 29 1021.7
20260902220601 19 169 14.5 33.8 0.00 0.00 0.00 27 1021.7
20260902220107 20 195 14.5 33.8 0.00 0.00 0.00 28 1021.8
20260902215558 20 150 12.9 32.2 0.00 0.00 0.00 27 1021.7
20260902215059 20 148 11.3 32.2 0.00 0.00 0.00 28 1022.0
20260902214615 21 154 8.0 32.2 0.00 0.00 0.00 25 1021.9
20260902214058 21 153 4.8 20.9 0.00 0.00 0.00 26 1021.9
20260902213557 21 144 3.2 20.9 0.00 0.00 0.00 25 1022.0
20260902213109 21 158 4.8 20.9 0.00 0.00 0.00 25 1021.8
20260902212558 20 145 11.3 25.7 0.00 0.00 0.00 26 1022.0
20260902212058 20 181 11.3 25.7 0.00 0.00 0.00 26 1021.7
20260902211606 20 163 4.8 27.4 0.00 0.00 0.00 25 1021.8
20260902211058 21 179 3.2 27.4 0.00 0.00 0.00 24 1021.8
20260902210604 21 118 8.0 27.4 0.00 0.00 0.00 24 1021.6
20260902210105 21 234 8.0 17.7 0.00 0.00 0.00 22 1021.4
20260902205559 22 208 6.4 16.1 0.00 0.00 0.00 23 1021.6
20260902205101 22 195 6.4 14.5 0.00 0.00 0.00 23 1021.5
20260902204607 21 29 3.2 8.0 0.00 0.00 0.00 24 1021.2
20260902204059 21 193 1.6 16.1 0.00 0.00 0.00 21 1021.1
20260902203558 21 104 4.8 35.4 0.00 0.00 0.00 24 1021.0
20260902203109 21 252 8.0 35.4 0.00 0.00 0.00 23 1021.1
20260902202559 20 335 20.9 35.4 0.00 0.00 0.00 24 1021.1
20260902202059 20 56 14.5 24.1 0.00 0.00 0.00 22 1021.1
20260902201606 21 181 1.6 17.7 0.00 0.00 0.00 22 1021.1
20260902201058 20 75 9.7 16.1 0.00 0.00 0.00 22 1021.1
20260902200558 20 302 8.0 16.1 0.00 0.00 0.00 22 1021.1
20260902200106 21 338 3.2 14.5 0.00 0.00 0.00 23 1021.1
20260902195602 20 273 4.8 14.5 0.00 0.00 0.00 24 1021.2
20260902195058 20 113 6.4 11.3 0.00 0.00 0.00 25 1021.3
20260902194610 21 49 3.2 14.5 0.00 0.00 0.00 24 1021.4
20260902194058 20 53 6.4 14.5 0.00 0.00 0.00 25 1021.4
20260902193559 20 250 6.4 14.5 0.00 0.00 0.00 25 1021.3
20260902193108 21 304 3.2 11.3 0.00 0.00 0.00 25 1021.3
20260902192600 21 257 3.2 8.0 0.00 0.00 0.00 23 1021.3
20260902192102 21 321 0.0 8.0 0.00 0.00 0.00 22 1021.4
20260902191605 20 0 1.6 8.0 0.00 0.00 0.00 26 1021.4
20260902191058 20 56 1.6 8.0 0.00 0.00 0.00 25 1021.5
20260902190558 20 338 1.6 8.0 0.00 0.00 0.00 25 1021.5
20260902190106 19 60 3.2 8.0 0.00 0.00 0.00 24 1021.7
20260902185558 19 307 3.2 8.0 0.00 0.00 0.00 24 1021.8
20260902185102 19 31 4.8 8.0 0.00 0.00 0.00 25 1021.9
20260902184609 18 54 1.6 6.4 0.00 0.00 0.00 24 1022.1
20260902184059 18 305 1.6 6.4 0.00 0.00 0.00 25 1022.0
20260902183558 17 0 0.0 6.4 0.00 0.00 0.00 28 1022.1
20260902183114 17 26 3.2 8.0 0.00 0.00 0.00 26 1022.2
20260902182558 18 0 1.6 8.0 0.00 0.00 0.00 26 1022.1
20260902182101 18 356 0.0 4.8 0.00 0.00 0.00 27 1022.3
20260902181607 18 305 0.0 6.4 0.00 0.00 0.00 27 1022.3
20260902181057 17 0 0.0 6.4 0.00 0.00 0.00 28 1022.5
20260902180557 17 0 1.6 6.4 0.00 0.00 0.00 30 1022.5
20260902180109 17 295 1.6 3.2 0.00 0.00 0.00 28 1022.6
20260902175559 17 0 0.0 4.8 0.00 0.00 0.00 30 1022.5
20260902175059 16 323 0.0 4.8 0.00 0.00 0.00 30 1022.5
20260902174610 16 0 0.0 3.2 0.00 0.00 0.00 32 1022.5
20260902174058 15 51 0.0 6.4 0.00 0.00 0.00 31 1022.5
20260902173558 15 321 1.6 6.4 0.00 0.00 0.00 34 1022.5
20260902173106 14 53 1.6 6.4 0.00 0.00 0.00 35 1022.6
20260902172558 13 0 0.0 4.8 0.00 0.00 0.00 36 1022.6
20260902172100 13 88 0.0 4.8 0.00 0.00 0.00 37 1022.6
20260902171610 13 51 0.0 3.2 0.00 0.00 0.00 38 1022.5
20260902171059 13 65 0.0 3.2 0.00 0.00 0.00 38 1022.5
20260902170558 13 53 0.0 3.2 0.00 0.00 0.00 37 1022.5
20260902170117 13 109 0.0 3.2 0.00 0.00 0.00 37 1022.4
20260902165559 13 0 1.6 3.2 0.00 0.00 0.00 36 1022.5
20260902165101 13 93 0.0 3.2 0.00 0.00 0.00 36 1022.5
20260902164624 13 0 0.0 4.8 0.00 0.00 0.00 37 1022.4
20260902164058 13 81 0.0 4.8 0.00 0.00 0.00 37 1022.6
20260902163600 13 81 3.2 4.8 0.00 0.00 0.00 36 1022.4
20260902163109 13 63 0.0 3.2 0.00 0.00 0.00 37 1022.5
20260902162602 13 89 0.0 3.2 0.00 0.00 0.00 37 1022.5
20260902162059 12 127 0.0 1.6 0.00 0.00 0.00 39 1022.7
20260902161616 12 0 0.0 4.8 0.00 0.00 0.00 38 1022.8
20260902161059 12 0 0.0 4.8 0.00 0.00 0.00 38 1022.7
20260902160558 12 49 1.6 4.8 0.00 0.00 0.00 39 1022.6
20260902155558 12 49 1.6 4.8 0.00 0.00 0.00 38 1022.5
20260902155058 13 57 1.6 4.8 0.00 0.00 0.00 37 1022.4
20260902154602 13 63 0.0 4.8 0.00 0.00 0.00 38 1022.3
20260902154058 13 224 1.6 4.8 0.00 0.00 0.00 37 1022.6
20260902153558 12 0 0.0 4.8 0.00 0.00 0.00 38 1022.6
20260902153117 12 251 0.0 4.8 0.00 0.00 0.00 40 1022.5
20260902152557 11 0 0.0 3.2 0.00 0.00 0.00 41 1022.4
20260902152057 11 134 0.0 3.2 0.00 0.00 0.00 46 1022.4
20260902151608 11 115 0.0 3.2 0.00 0.00 0.00 48 1022.4
20260902151059 10 0 0.0 1.6 0.00 0.00 0.00 49 1022.2
20260902150558 10 0 0.0 1.6 0.00 0.00 0.00 51 1022.3
20260902150106 10 135 0.0 1.6 0.00 0.00 0.00 50 1022.3
20260902145558 9 0 0.0 1.6 0.00 0.00 0.00 50 1022.3
20260902145058 8 0 0.0 1.6 0.00 0.00 0.00 54 1022.3
20260902144627 8 94 0.0 1.6 0.00 0.00 0.00 52 1022.3
20260902144058 7 0 0.0 0.0 0.00 0.00 0.00 55 1022.4
20260902143559 7 0 0.0 1.6 0.00 0.00 0.00 55 1022.3
20260902143115 6 0 0.0 1.6 0.00 0.00 0.00 59 1022.1
20260902142559 5 0 0.0 4.8 0.00 0.00 0.00 60 1022.0
20260902142059 5 0 0.0 4.8 0.00 0.00 0.00 59 1022.0
20260902141605 5 0 0.0 0.0 0.00 0.00 0.00 58 1021.9
20260902141058 5 0 0.0 1.6 0.00 0.00 0.00 58 1021.8
20260902140601 5 0 0.0 1.6 0.00 0.00 0.00 57 1021.7
20260902140105 5 171 0.0 1.6 0.00 0.00 0.00 57 1021.8
20260902135558 5 0 0.0 3.2 0.00 0.00 0.00 57 1021.8
20260902135058 4 0 0.0 3.2 0.00 0.00 0.00 56 1022.0
20260902134605 4 185 0.0 3.2 0.00 0.00 0.00 55 1022.0
20260902134058 4 0 0.0 1.6 0.00 0.00 0.00 55 1021.7
20260902133558 4 165 0.0 3.2 0.00 0.00 0.00 54 1022.0
20260902133103 4 0 0.0 3.2 0.00 0.00 0.00 54 1021.7
20260902132558 4 0 0.0 3.2 0.00 0.00 0.00 53 1021.6
20260902132058 4 0 0.0 3.2 0.00 0.00 0.00 54 1021.4
20260902131607 4 162 0.0 3.2 0.00 0.00 0.00 52 1021.5
20260902131151 5 0 1.6 3.2 0.00 0.00 0.00 52 1021.4
20260902130559 5 0 0.0 3.2 0.00 0.00 0.00 49 1021.1
20260902130104 6 255 0.0 3.2 0.00 0.00 0.00 48 1021.3
20260902125558 6 58 0.0 4.8 0.00 0.00 0.00 51 1021.1
20260902125058 5 115 0.0 4.8 0.00 0.00 0.00 48 1021.1
20260902124610 5 233 0.0 3.2 0.00 0.00 0.00 49 1021.3
20260902124100 5 0 0.0 3.2 0.00 0.00 0.00 49 1021.2
20260902123559 6 188 0.0 3.2 0.00 0.00 0.00 49 1021.3
20260902123104 5 54 0.0 3.2 0.00 0.00 0.00 51 1021.3
20260902122600 5 163 0.0 1.6 0.00 0.00 0.00 50 1021.2
20260902122058 5 140 0.0 1.6 0.00 0.00 0.00 49 1021.2
20260902121613 5 165 0.0 4.8 0.00 0.00 0.00 49 1021.3
20260902121058 4 0 1.6 4.8 0.00 0.00 0.00 48 1021.3
20260902120558 5 174 0.0 4.8 0.00 0.00 0.00 48 1021.3
20260902120111 5 0 0.0 6.4 0.00 0.00 0.00 47 1021.2
20260902115558 5 148 1.6 6.4 0.00 0.00 0.00 48 1021.0
20260902115058 5 162 0.0 3.2 0.00 0.00 0.00 47 1021.0
20260902114619 5 236 1.6 3.2 0.00 0.00 0.00 46 1020.9
20260902114058 5 162 0.0 3.2 0.00 0.00 0.00 45 1020.8
20260902113557 5 158 0.0 3.2 0.00 0.00 0.00 46 1020.6
20260902113104 5 0 1.6 6.4 0.00 0.00 0.00 47 1020.6
20260902112559 4 0 1.6 6.4 0.00 0.00 0.00 47 1020.5
20260902112100 5 0 0.0 1.6 0.00 0.00 0.00 46 1020.7
20260902111605 4 154 0.0 1.6 0.00 0.00 0.00 46 1020.5
20260902111058 5 0 0.0 1.6 0.00 0.00 0.00 46 1020.5
20260902110600 5 0 0.0 4.8 0.00 0.00 0.00 45 1020.5
20260902110110 5 0 1.6 4.8 0.00 0.00 0.00 45 1020.5
20260902105602 5 155 0.0 3.2 0.00 0.00 0.00 44 1020.5
20260902105058 5 255 0.0 3.2 0.00 0.00 0.00 45 1020.6
20260902104605 5 191 0.0 3.2 0.00 0.00 0.00 44 1020.6
20260902104058 5 206 0.0 3.2 0.00 0.00 0.00 44 1020.3
20260902103601 5 175 0.0 1.6 0.00 0.00 0.00 43 1020.4
20260902103120 6 0 0.0 1.6 0.00 0.00 0.00 42 1020.3
20260902102559 6 0 0.0 3.2 0.00 0.00 0.00 42 1020.2
20260902102059 6 0 0.0 4.8 0.00 0.00 0.00 41 1020.2
20260902101601 7 227 0.0 4.8 0.00 0.00 0.00 41 1020.2
20260902101058 6 98 1.6 4.8 0.00 0.00 0.00 41 1020.1
20260902100558 6 0 0.0 3.2 0.00 0.00 0.00 41 1020.2
20260902100101 6 0 0.0 3.2 0.00 0.00 0.00 42 1020.4
20260902095601 6 182 0.0 1.6 0.00 0.00 0.00 42 1020.2
20260902095058 7 0 0.0 8.0 0.00 0.00 0.00 40 1020.4
20260902094603 7 0 1.6 8.0 0.00 0.00 0.00 40 1020.4
20260902094059 6 118 4.8 8.0 0.00 0.00 0.00 42 1020.3
20260902093557 7 128 0.0 4.8 0.00 0.00 0.00 42 1020.5
20260902093111 7 249 0.0 4.8 0.00 0.00 0.00 39 1020.6
20260902092558 6 63 1.6 3.2 0.00 0.00 0.00 41 1020.5
20260902092101 6 147 0.0 3.2 0.00 0.00 0.00 43 1020.6
20260902091607 7 246 0.0 4.8 0.00 0.00 0.00 42 1020.6
20260902091100 7 133 0.0 4.8 0.00 0.00 0.00 42 1020.5
20260902090558 6 153 0.0 4.8 0.00 0.00 0.00 44 1020.7
20260902090105 6 0 0.0 4.8 0.00 0.00 0.00 43 1020.8
20260902085558 7 0 1.6 4.8 0.00 0.00 0.00 44 1020.7
20260902085059 6 118 1.6 4.8 0.00 0.00 0.00 45 1020.6
20260902084605 6 0 0.0 1.6 0.00 0.00 0.00 46 1020.6
20260902084059 6 0 0.0 3.2 0.00 0.00 0.00 45 1020.5
20260902083558 6 0 0.0 3.2 0.00 0.00 0.00 45 1020.7
20260902083104 6 0 0.0 3.2 0.00 0.00 0.00 45 1020.8
20260902082558 6 0 0.0 3.2 0.00 0.00 0.00 44 1020.9
20260902082058 7 217 0.0 3.2 0.00 0.00 0.00 44 1020.8
20260902081609 7 0 0.0 3.2 0.00 0.00 0.00 44 1020.9
20260902081058 7 0 0.0 3.2 0.00 0.00 0.00 45 1020.7
20260902080559 7 255 0.0 1.6 0.00 0.00 0.00 42 1020.7
20260902080105 7 207 0.0 3.2 0.00 0.00 0.00 42 1020.6
20260902075557 8 0 0.0 3.2 0.00 0.00 0.00 40 1020.8
20260902075058 8 248 0.0 6.4 0.00 0.00 0.00 40 1020.9
20260902074614 8 77 3.2 9.7 0.00 0.00 0.00 39 1020.6
20260902074058 8 93 4.8 9.7 0.00 0.00 0.00 40 1020.8
20260902073602 8 119 0.0 6.4 0.00 0.00 0.00 41 1020.7
20260902073109 8 0 1.6 8.0 0.00 0.00 0.00 40 1020.8
20260902072557 8 95 1.6 8.0 0.00 0.00 0.00 42 1020.6
20260902072058 8 143 0.0 6.4 0.00 0.00 0.00 43 1020.8
20260902071604 8 110 1.6 6.4 0.00 0.00 0.00 44 1020.6
20260902071058 8 161 3.2 8.0 0.00 0.00 0.00 44 1020.8
20260902070557 8 0 0.0 9.7 0.00 0.00 0.00 44 1020.6
20260902070107 8 55 4.8 9.7 0.00 0.00 0.00 45 1020.8
20260902065558 7 82 0.0 4.8 0.00 0.00 0.00 46 1020.6
20260902065100 8 0 0.0 8.0 0.00 0.00 0.00 46 1020.6
20260902064603 8 0 4.8 9.7 0.00 0.00 0.00 45 1020.6
20260902064059 9 0 0.0 12.9 0.00 0.00 0.00 44 1020.6
20260902063558 9 77 6.4 12.9 0.00 0.00 0.00 45 1020.4
20260902063104 8 63 4.8 9.7 0.00 0.00 0.00 45 1020.4
20260902062558 8 136 1.6 6.4 0.00 0.00 0.00 47 1020.6
20260902062058 8 0 1.6 4.8 0.00 0.00 0.00 48 1020.4
20260902061604 8 0 0.0 3.2 0.00 0.00 0.00 46 1020.6
20260902061059 8 0 0.0 3.2 0.00 0.00 0.00 45 1020.5
20260902060600 8 49 0.0 4.8 0.00 0.00 0.00 46 1020.1
20260902060116 8 0 0.0 4.8 0.00 0.00 0.00 47 1020.3
20260902055558 8 0 0.0 4.8 0.00 0.00 0.00 47 1020.2
20260902055059 8 0 1.6 4.8 0.00 0.00 0.00 48 1020.1
20260902054603 9 0 0.0 3.2 0.00 0.00 0.00 48 1020.2
20260902054058 8 66 0.0 4.8 0.00 0.00 0.00 50 1020.2
20260902053558 8 0 0.0 4.8 0.00 0.00 0.00 49 1020.4
20260902053107 8 0 0.0 4.8 0.00 0.00 0.00 48 1020.5
20260902052557 9 183 0.0 4.8 0.00 0.00 0.00 47 1020.4
20260902052057 10 0 1.6 4.8 0.00 0.00 0.00 46 1020.6
20260902051606 10 133 0.0 8.0 0.00 0.00 0.00 45 1020.6
20260902051059 11 0 0.0 8.0 0.00 0.00 0.00 44 1020.6
20260902050600 10 0 4.8 8.0 0.00 0.00 0.00 44 1020.7
20260902050108 10 163 0.0 9.7 0.00 0.00 0.00 45 1020.9
20260902045557 10 0 4.8 9.7 0.00 0.00 0.00 44 1020.9
20260902045058 10 114 0.0 3.2 0.00 0.00 0.00 46 1020.9
20260902044605 11 254 0.0 1.6 0.00 0.00 0.00 47 1020.9
20260902044058 11 261 0.0 3.2 0.00 0.00 0.00 46 1020.9
20260902043558 11 0 0.0 3.2 0.00 0.00 0.00 44 1020.9
20260902043113 11 68 0.0 3.2 0.00 0.00 0.00 45 1020.8
20260902042603 11 261 0.0 6.4 0.00 0.00 0.00 46 1020.9
20260902042058 11 0 0.0 6.4 0.00 0.00 0.00 46 1020.7
20260902041605 11 220 0.0 8.0 0.00 0.00 0.00 45 1020.6
20260902041057 12 0 0.0 9.7 0.00 0.00 0.00 45 1020.6
20260902040559 12 0 0.0 9.7 0.00 0.00 0.00 44 1020.6
20260902040108 12 0 1.6 9.7 0.00 0.00 0.00 41 1020.5
20260902035557 12 310 0.0 14.5 0.00 0.00 0.00 39 1020.3
20260902035059 12 50 3.2 16.1 0.00 0.00 0.00 37 1020.3
20260902034608 13 53 4.8 19.3 0.00 0.00 0.00 39 1020.2
20260902034058 13 17 3.2 30.6 0.00 0.00 0.00 37 1020.1
20260902033558 13 47 14.5 30.6 0.00 0.00 0.00 34 1019.9
20260902033108 14 192 3.2 9.7 0.00 0.00 0.00 33 1019.7
20260902032558 15 0 0.0 14.5 0.00 0.00 0.00 26 1019.5
20260902032058 16 234 4.8 17.7 0.00 0.00 0.00 18 1019.4
20260902031608 16 182 6.4 22.5 0.00 0.00 0.00 18 1019.5
20260902031101 16 155 11.3 30.6 0.00 0.00 0.00 16 1019.4
20260902030558 17 144 16.1 30.6 0.00 0.00 0.00 16 1019.5
20260902025558 17 129 16.1 25.7 0.00 0.00 0.00 16 1019.4
20260902025101 17 134 9.7 29.0 0.00 0.00 0.00 16 1019.4
20260902024611 17 103 17.7 29.0 0.00 0.00 0.00 16 1019.3
20260902024100 17 150 12.9 32.2 0.00 0.00 0.00 16 1019.3
20260902023558 17 150 16.1 32.2 0.00 0.00 0.00 16 1019.3
20260902023106 17 157 14.5 29.0 0.00 0.00 0.00 16 1019.3
20260902022558 17 131 16.1 29.0 0.00 0.00 0.00 16 1019.0
20260902022101 17 149 6.4 25.7 0.00 0.00 0.00 15 1019.0
20260902021604 17 91 11.3 25.7 0.00 0.00 0.00 16 1019.1
20260902021058 17 124 14.5 25.7 0.00 0.00 0.00 16 1019.1
20260902020558 17 136 8.0 17.7 0.00 0.00 0.00 16 1019.2
20260902020104 17 135 8.0 25.7 0.00 0.00 0.00 15 1019.1
20260902015557 18 164 14.5 25.7 0.00 0.00 0.00 15 1018.9
20260902015057 18 148 11.3 32.2 0.00 0.00 0.00 15 1018.8
20260902014604 18 146 9.7 32.2 0.00 0.00 0.00 14 1018.9
20260902014101 18 69 16.1 32.2 0.00 0.00 0.00 14 1018.9
20260902013558 18 139 9.7 19.3 0.00 0.00 0.00 14 1018.9
20260902013102 19 96 6.4 9.7 0.00 0.00 0.00 15 1018.9
20260902012558 19 162 0.0 20.9 0.00 0.00 0.00 15 1019.0